EN

Hourly Weather Lagodekhis

Today, 5 August, Thursday

Time Temperature Precipitation Wind Pressure Humidity
00:00 +18°C° 0.2 mm 2 mps 631 mmHg 63%
01:00 +18°C° 0.1 mm 2 mps 631 mmHg 63%
02:00 +18°C° 0.1 mm 2 mps 630 mmHg 63%
03:00 +17°C° 0 mm 2 mps 630 mmHg 64%
04:00 +17°C° 0 mm 2 mps 630 mmHg 63%
05:00 +18°C° 0 mm 2 mps 630 mmHg 62%
06:00 +19°C° 0 mm 1 mps 630 mmHg 62%
07:00 +20°C° 0 mm 2 mps 631 mmHg 55%
08:00 +21°C° 0 mm 2 mps 631 mmHg 49%
09:00 +24°C° 0 mm 2 mps 632 mmHg 43%
10:00 +25°C° 0.1 mm 2 mps 632 mmHg 41%
11:00 +26°C° 0.1 mm 2 mps 632 mmHg 38%
12:00 +27°C° 0.1 mm 3 mps 632 mmHg 36%
13:00 +27°C° 0.1 mm 2 mps 632 mmHg 36%
14:00 +27°C° 0.1 mm 2 mps 632 mmHg 35%
15:00 +27°C° 0.1 mm 2 mps 631 mmHg 34%
16:00 +26°C° 0.1 mm 2 mps 631 mmHg 38%
17:00 +26°C° 0.1 mm 1 mps 631 mmHg 41%
18:00 +25°C° 0.1 mm 1 mps 631 mmHg 45%
19:00 +23°C° 0.3 mm 2 mps 630 mmHg 50%
20:00 +21°C° 0.3 mm 3 mps 630 mmHg 54%
21:00 +19°C° 0.3 mm 4 mps 630 mmHg 58%
22:00 +19°C° 0 mm 3 mps 630 mmHg 55%
23:00 +18°C° 0 mm 2 mps 630 mmHg 53%

Tomorrow, 6 August, Friday

Time Temperature Precipitation Wind Pressure Humidity
00:00 +18°C° 0 mm 2 mps 630 mmHg 50%
01:00 +18°C° 0 mm 2 mps 629 mmHg 49%
02:00 +17°C° 0 mm 2 mps 629 mmHg 49%
03:00 +17°C° 0 mm 2 mps 628 mmHg 49%
04:00 +17°C° 0 mm 2 mps 629 mmHg 49%
05:00 +17°C° 0 mm 2 mps 629 mmHg 50%
06:00 +18°C° 0 mm 2 mps 629 mmHg 51%
07:00 +20°C° 0 mm 2 mps 629 mmHg 46%
08:00 +21°C° 0 mm 2 mps 630 mmHg 40%
09:00 +24°C° 0 mm 2 mps 630 mmHg 35%
10:00 +25°C° 0 mm 2 mps 631 mmHg 33%
11:00 +26°C° 0 mm 2 mps 631 mmHg 32%
12:00 +27°C° 0 mm 3 mps 631 mmHg 31%
13:00 +27°C° 0 mm 3 mps 631 mmHg 30%
14:00 +28°C° 0 mm 2 mps 630 mmHg 29%
15:00 +28°C° 0 mm 2 mps 630 mmHg 29%
16:00 +27°C° 0 mm 2 mps 630 mmHg 33%
17:00 +26°C° 0 mm 2 mps 629 mmHg 37%
18:00 +25°C° 0 mm 1 mps 629 mmHg 41%
19:00 +24°C° 0 mm 2 mps 628 mmHg 42%
20:00 +21°C° 0 mm 2 mps 628 mmHg 42%
21:00 +19°C° 0 mm 2 mps 628 mmHg 43%
22:00 +19°C° 0 mm 2 mps 628 mmHg 44%
23:00 +18°C° 0 mm 2 mps 628 mmHg 45%

Day after tomorrow, 7 August, Saturday

Time Temperature Precipitation Wind Pressure Humidity
00:00 +18°C° 0 mm 2 mps 627 mmHg 46%
01:00 +17°C° 0 mm 2 mps 627 mmHg 47%
02:00 +17°C° 0 mm 2 mps 627 mmHg 47%
03:00 +16°C° 0 mm 2 mps 627 mmHg 47%
04:00 +17°C° 0 mm 2 mps 627 mmHg 46%
05:00 +17°C° 0 mm 2 mps 627 mmHg 46%
06:00 +18°C° 0 mm 2 mps 627 mmHg 45%
07:00 +20°C° 0 mm 2 mps 628 mmHg 40%
08:00 +23°C° 0 mm 2 mps 628 mmHg 36%
09:00 +25°C° 0 mm 2 mps 629 mmHg 31%
10:00 +26°C° 0 mm 2 mps 629 mmHg 30%
11:00 +27°C° 0 mm 3 mps 629 mmHg 30%
12:00 +28°C° 0 mm 3 mps 629 mmHg 29%
13:00 +28°C° 0 mm 3 mps 629 mmHg 29%
14:00 +29°C° 0 mm 3 mps 629 mmHg 29%
15:00 +29°C° 0 mm 2 mps 629 mmHg 29%
16:00 +28°C° 0 mm 2 mps 628 mmHg 33%
17:00 +27°C° 0 mm 2 mps 628 mmHg 38%
18:00 +26°C° 0 mm 1 mps 628 mmHg 42%
19:00 +25°C° 0 mm 1 mps 628 mmHg 42%
20:00 +23°C° 0 mm 2 mps 628 mmHg 42%
21:00 +20°C° 0 mm 2 mps 628 mmHg 41%
22:00 +20°C° 0 mm 2 mps 628 mmHg 44%
23:00 +19°C° 0 mm 2 mps 628 mmHg 46%

8 August, Sunday

Time Temperature Precipitation Wind Pressure Humidity
00:00 +18°C° 0 mm 2 mps 628 mmHg 48%
01:00 +18°C° 0 mm 2 mps 628 mmHg 47%
02:00 +18°C° 0 mm 2 mps 627 mmHg 46%
03:00 +18°C° 0 mm 2 mps 627 mmHg 45%
04:00 +19°C° 0 mm 2 mps 627 mmHg 47%
05:00 +19°C° 0 mm 2 mps 628 mmHg 48%
06:00 +20°C° 0 mm 2 mps 628 mmHg 49%
07:00 +23°C° 0 mm 2 mps 628 mmHg 45%
08:00 +25°C° 0 mm 2 mps 629 mmHg 41%
09:00 +26°C° 0 mm 2 mps 630 mmHg 37%
10:00 +27°C° 0 mm 2 mps 630 mmHg 35%
11:00 +28°C° 0 mm 2 mps 630 mmHg 34%
12:00 +29°C° 0 mm 2 mps 630 mmHg 33%
13:00 +30°C° 0 mm 3 mps 631 mmHg 32%
14:00 +30°C° 0 mm 3 mps 631 mmHg 31%
15:00 +30°C° 0 mm 3 mps 631 mmHg 31%
16:00 +29°C° 0 mm 3 mps 630 mmHg 35%
17:00 +28°C° 0 mm 2 mps 630 mmHg 40%
18:00 +27°C° 0 mm 1 mps 630 mmHg 44%
19:00 +25°C° 0 mm 1 mps 630 mmHg 45%
20:00 +24°C° 0 mm 1 mps 630 mmHg 47%
21:00 +21°C° 0 mm 2 mps 629 mmHg 48%
22:00 +21°C° 0 mm 2 mps 629 mmHg 48%
23:00 +20°C° 0 mm 2 mps 629 mmHg 48%

9 August, Monday

Time Temperature Precipitation Wind Pressure Humidity
00:00 +20°C° 0 mm 2 mps 629 mmHg 49%
01:00 +20°C° 0 mm 2 mps 629 mmHg 50%
02:00 +19°C° 0 mm 2 mps 629 mmHg 52%
03:00 +19°C° 0 mm 2 mps 629 mmHg 53%
04:00 +19°C° 0.2 mm 2 mps 629 mmHg 58%
05:00 +18°C° 0.2 mm 2 mps 629 mmHg 64%
06:00 +18°C° 0.2 mm 2 mps 629 mmHg 69%
07:00 +20°C° 0.1 mm 2 mps 630 mmHg 63%
08:00 +23°C° 0.1 mm 2 mps 631 mmHg 56%
09:00 +25°C° 0.1 mm 2 mps 632 mmHg 50%
10:00 +26°C° 0.3 mm 2 mps 632 mmHg 46%
11:00 +27°C° 0.3 mm 3 mps 632 mmHg 41%
12:00 +29°C° 0.3 mm 3 mps 633 mmHg 37%
13:00 +29°C° 0.1 mm 3 mps 632 mmHg 35%
14:00 +29°C° 0.1 mm 3 mps 632 mmHg 34%
15:00 +30°C° 0.1 mm 3 mps 632 mmHg 32%
16:00 +29°C° 0.1 mm 2 mps 632 mmHg 36%
17:00 +28°C° 0.1 mm 2 mps 631 mmHg 39%
18:00 +27°C° 0.1 mm 1 mps 631 mmHg 43%
19:00 +25°C° 0 mm 2 mps 631 mmHg 43%
20:00 +23°C° 0 mm 2 mps 631 mmHg 44%
21:00 +21°C° 0 mm 3 mps 631 mmHg 45%
22:00 +20°C° 0 mm 2 mps 631 mmHg 47%
23:00 +20°C° 0 mm 2 mps 631 mmHg 49%

10 August, Tuesday

Time Temperature Precipitation Wind Pressure Humidity
00:00 +20°C° 0 mm 1 mps 630 mmHg 51%
01:00 +20°C° 0 mm 1 mps 630 mmHg 50%
02:00 +19°C° 0 mm 2 mps 630 mmHg 49%
03:00 +18°C° 0 mm 2 mps 630 mmHg 47%
04:00 +19°C° 0 mm 2 mps 630 mmHg 50%
05:00 +19°C° 0 mm 2 mps 630 mmHg 52%
06:00 +19°C° 0 mm 2 mps 630 mmHg 54%
07:00 +21°C° 0 mm 2 mps 630 mmHg 49%
08:00 +24°C° 0 mm 2 mps 631 mmHg 44%
09:00 +26°C° 0 mm 2 mps 632 mmHg 39%
10:00 +27°C° 0 mm 2 mps 632 mmHg 36%
11:00 +28°C° 0 mm 3 mps 632 mmHg 34%
12:00 +29°C° 0 mm 3 mps 632 mmHg 31%
13:00 +29°C° 0.1 mm 3 mps 632 mmHg 31%
14:00 +29°C° 0.1 mm 3 mps 632 mmHg 31%
15:00 +29°C° 0.1 mm 2 mps 631 mmHg 30%
16:00 +28°C° 0.1 mm 2 mps 631 mmHg 35%
17:00 +26°C° 0.1 mm 2 mps 630 mmHg 40%
18:00 +25°C° 0.1 mm 2 mps 630 mmHg 45%
19:00 +23°C° 0.1 mm 2 mps 629 mmHg 47%
20:00 +21°C° 0.1 mm 2 mps 629 mmHg 50%
21:00 +19°C° 0.1 mm 3 mps 629 mmHg 52%
22:00 +19°C° 0 mm 2 mps 628 mmHg 53%
23:00 +18°C° 0 mm 2 mps 628 mmHg 54%
Show more